Location: Sevilla
(37.3933°N, 5.9839°W)
Time: 05:17:53
(UTC+02:00)

Transit 2A - Pass Details

Date: 28 June 2024
Orbit: 591 x 960 km, 66.7° (Epoch: 15 July)

Event Time Altitude Azimuth Distance (km) Brightness Sun altitude
Rises 02:32:05 0° 318° (NW) 3,608 10.1 -29.3°
Reaches altitude 10° 02:35:06 10° 305° (NW) 2,683 9.1 -29.3°
Enters shadow 02:38:55 23° 268° (W) 1,931 8.0 -29.3°
Maximum altitude 02:39:56 24° 254° (WSW) 1,887 - -29.3°
Drops below altitude 10° 02:44:46 10° 204° (SSW) 2,666 - -29.2°
Sets 02:47:46 0° 191° (S) 3,579 - -29.2°
